Tracking 32936 objects as of 16-Jan-2026
HD Live streaming from Space Station
objects crossing your sky now

DELTA 1 DEB

Track DELTA 1 DEB now!
10-day predictions


NORAD ID: 21283
Int'l Code: 1975-052U
Perigee: 1,091.6 km
Apogee: 1,463.0 km
Inclination: 99.8 °
Period: 110.9 minutes
Semi major axis: 7648 km
RCS: 0.1668 m2 (medium)
Launch date: June 12, 1975
Source: United States (US)
Launch site: AIR FORCE WESTERN TEST RANGE (AFWTR)

Note: This is SATELLITE DEBRIS
Your satellite tracking list
Your tracking list is empty




NASA's NSSDC Master Catalog

Two Line Element Set (TLE):
1 21283U 75052U   26015.79402914  .00000461  00000-0  14936-2 0  9991
2 21283  99.7899 125.4606 0242838 247.2899 283.1555 12.97940353642993
Source of the keplerian elements: AFSPC